Showing default

OMNI-L2, 52771

Orbit data source: Space-Track

OMNI-L2, 52771 is a payload satellite owned by OmniSpace (US) in SSO that was launched on Wed, 25 May 2022 UTC via an FALCON 9 launch vehicle from the Air Force Eastern Test Range (AFETR). Payload-class satellites include a variety of spacecraft equipped with specific instruments for various scientific and technological missions. These include communications satellites like Starlink; space stations such as the ISS; scientific satellites like the Hubble; Earth observation satellites from companies like Planet Labs, Umbra, and HawkEye 360; GPS; miniature CubeSats for education and research; and military/defense satellites.

Loading next visibility...
Identifier
52771, 2022-057AR
Orbit
SSO
Country
Flag of USUS
Related business
Manufacturer
NANAV/THALES
Mission
Operational Commercial Communications
Bus & Motor
CUBESAT 12U, Unknown motor
Mass
~20 kg wet, ~20 kg dry
Launch date (UTC)
2022-05-25 (4 years ago)
Launch vehicle
FALCON 9
Launch site
Air Force Eastern Test Range (AFETR)
Object type
Payload
Rocket body
Debris
Shape & HBR
Box + 2 Pan, 0.5 m
Radar Cross Section
0.126 m², Medium (>0.1 m² and < 1m²)

Expand to show TLE details & history
Last TLE update: 2 days ago

TLE from 2 days ago
0 OMNI-L2
1 52771U 22057AR  26171.43231169  .00000980  00000-0  13144-3 0  9997
2 52771  97.4714 233.5727 0005521 324.4275  35.6570 14.81377450220870
Epoch: 2026-06-20T10:22Z
TLE epoch observation values (Epoch: 2026-06-20T10:22:31.730Z)
Latitude
-0.00002°
Longitude
169.29347°
Altitude
624.874 km
Speed
7.548 km/s
True Right ascension
15h 34m 17s
True Declination
0° 00' 00"
Sunlit
Object was in full shadow at epoch
Visualization orbit readout
Latitude
Unknown
Longitude
Unknown
Altitude
Unknown
Speed
Unknown
Apparent Right ascension
Unknown
Apparent Declination
Unknown
Sunlit
N/A
Visualization observer readout
Local Sidereal Time
21:44:36
Azimuth
Unknown
Elevation
Unknown
Doppler factor
Unknown
Orbital elements
Apogee altitude
625.865 km
Perigee altitude
618.135 km
Semi-major axis
7,000.137 km
Eccentricity
0.00055
Inclination
97.4714°
RAAN
233.5727°
Arg. of periapsis
324.4275°
True anomaly
35.6939°
Mean anomaly
35.657°
Eccentric anomaly
35.67545°
Mean motion
3.70581 °/min
Orbital period
97.14 mins
BSTAR
0.00013144
Loading maneuver chart data...
Computing Atmospheric mass density...

Documentation

Showing up to 5 results
|